Theta_e
318 318 317 316 315 316 317 318 318 318 316 315 314 314 314 313 313 313 312 311 310 312 314 315 315 315 316 317 317 317 316 316 316 316 316 316 316 315 313 313 312 312 311 311 311 311 311 311 311 312 312 313 313 314 314 315 316 316 317 318 318 318 320 322 324 320 315 313 311 309 309 308 307 308 310 311 311 313 315 316 316 315 313 313 311
318 318 317 316 316 316 317 318 317 316 315 314 314 314 313 313 313 312 312 311 310 312 314 314 314 314 315 316 315 314 314 315 316 316 316 315 313 312 311 311 311 310 310 310 310 310 310 310 310 311 311 312 312 312 313 313 313 314 314 314 315 315 316 319 320 318 313 311 310 308 308 307 307 307 309 310 310 311 313 314 315 312 310 311 310
318 318 318 317 316 316 317 317 316 316 315 314 314 314 313 313 312 312 312 310 309 312 313 313 313 314 315 315 315 314 315 315 315 314 313 312 311 310 310 310 310 310 310 309 309 309 310 310 310 311 311 311 311 311 312 312 311 312 312 312 312 313 313 315 316 314 311 309 308 307 306 305 304 306 307 308 308 310 311 312 314 311 308 308 308
317 317 317 317 316 316 316 317 316 316 315 314 314 313 312 312 312 311 311 309 310 312 313 312 312 313 314 315 314 314 313 312 311 310 310 309 308 308 308 309 309 309 309 309 309 309 309 309 310 310 310 310 310 310 311 311 311 311 311 310 310 310 310 311 311 310 308 306 305 306 305 304 303 304 305 305 306 308 309 309 311 310 306 305 305
317 317 317 317 316 316 316 317 316 315 315 314 313 312 312 312 312 311 310 309 310 312 312 311 312 312 312 312 311 310 309 308 308 308 307 308 308 308 308 308 308 308 308 308 308 308 308 308 309 309 310 310 310 310 310 310 310 310 309 308 308 307 307 308 307 307 306 305 304 303 303 304 302 302 303 304 303 306 307 307 308 309 306 303 302
317 317 317 317 316 316 316 317 316 316 315 314 313 312 312 312 311 310 309 308 310 312 312 312 312 311 311 310 309 308 308 307 307 306 306 307 307 307 307 307 307 308 308 308 308 307 307 306 307 307 308 309 309 309 308 307 307 308 308 307 306 306 305 306 305 305 304 304 303 302 302 302 302 301 301 302 302 303 306 305 306 308 307 303 300
317 317 317 317 316 316 316 316 316 316 315 313 312 312 312 311 310 308 307 308 309 311 312 312 311 310 309 308 308 307 306 305 305 305 305 306 307 307 307 307 307 307 307 307 307 306 305 304 304 303 302 304 305 307 307 306 305 306 307 306 305 305 305 304 303 303 303 302 301 301 301 301 301 300 300 301 301 302 304 305 304 307 308 304 300
317 317 317 316 316 316 316 316 316 316 315 313 312 312 312 311 309 307 307 308 308 310 311 311 310 309 308 308 307 306 305 305 305 305 305 305 306 307 306 306 306 306 306 306 306 305 304 303 301 299 297 296 297 299 302 304 304 305 306 306 304 304 304 303 302 302 302 302 301 300 300 299 300 299 299 301 302 302 302 303 303 305 307 305 302
318 317 317 316 316 315 316 316 316 316 314 313 312 312 311 310 308 306 306 307 308 309 310 309 309 308 308 308 306 305 304 302 302 304 305 305 305 306 306 306 305 305 305 305 305 303 302 300 299 296 295 293 292 292 294 296 298 299 302 304 304 303 302 302 301 300 300 301 300 300 299 299 299 299 299 300 301 302 302 301 302 304 304 305 303
318 317 317 317 316 316 316 316 315 315 314 313 312 312 310 309 306 305 305 306 307 308 309 309 309 308 308 307 306 305 302 298 296 299 302 304 305 304 304 305 304 304 304 304 304 304 302 300 298 296 293 291 289 290 291 291 292 292 295 298 301 302 302 302 301 300 299 299 300 300 300 299 299 298 298 299 300 302 301 300 301 303 302 302 303
318 317 317 317 316 316 316 315 315 315 313 312 312 311 310 308 306 304 304 305 306 307 308 309 308 308 308 307 306 304 301 297 295 295 297 301 304 304 303 303 303 303 303 303 302 302 303 302 301 300 298 294 291 289 289 290 290 290 290 292 294 296 299 301 301 300 299 298 298 299 299 299 298 297 297 298 299 301 301 299 300 302 302 301 303
319 317 317 317 316 316 316 315 314 314 313 312 312 311 310 308 305 303 303 304 304 306 307 308 308 308 308 307 306 303 300 298 296 295 295 298 302 303 302 302 302 302 301 301 300 300 301 301 301 300 299 299 296 293 291 290 290 289 290 290 290 291 292 295 298 300 300 298 298 297 298 298 297 296 296 297 299 300 299 298 300 302 302 301 301
319 317 317 317 315 315 316 315 314 313 312 312 312 311 309 308 305 302 302 303 304 305 307 308 308 308 307 306 305 303 301 299 298 296 294 295 300 302 302 302 302 301 301 300 300 300 299 300 300 299 298 299 299 298 296 295 294 293 293 292 291 289 289 290 292 295 297 298 297 297 297 297 296 295 294 294 297 299 298 298 299 301 302 302 301
319 317 317 317 316 315 315 315 314 313 312 312 312 310 309 307 304 301 300 302 303 305 307 308 308 308 307 306 305 303 301 300 299 298 294 294 298 301 301 301 301 301 300 299 299 299 299 299 299 299 298 298 299 299 299 298 297 297 296 294 292 289 289 289 290 291 293 295 296 295 293 293 293 292 290 290 294 297 298 298 299 300 301 302 302
319 317 317 317 315 315 315 314 314 313 313 312 312 311 309 307 304 300 299 301 303 304 306 307 308 308 307 306 305 304 302 301 301 299 296 294 297 301 301 301 300 300 299 299 298 298 298 298 298 297 296 294 294 296 298 298 298 297 296 295 292 289 288 288 289 289 290 291 292 291 289 288 288 288 288 287 290 295 298 299 299 299 300 301 301
319 317 317 317 316 315 314 315 314 313 313 312 312 311 309 307 304 300 299 300 301 303 304 306 306 307 307 306 306 304 302 301 301 300 297 296 299 302 301 300 300 300 299 298 298 297 298 297 297 296 294 291 289 292 295 297 297 297 296 296 294 291 288 287 288 289 289 289 289 288 287 287 287 287 287 287 288 293 298 297 297 299 298 298 299
318 318 317 317 316 315 314 314 315 314 313 313 312 311 309 307 304 301 299 299 299 301 302 303 305 306 306 306 305 304 302 301 301 301 299 298 300 302 301 300 300 300 299 298 297 296 296 296 297 296 293 290 289 289 292 296 297 296 296 296 296 294 292 289 288 287 288 288 287 287 287 287 286 286 286 286 287 292 296 296 296 298 297 296 298
318 318 317 317 316 315 314 315 315 315 314 313 313 312 310 307 304 301 300 299 299 299 300 301 302 303 305 305 305 305 303 300 300 300 299 298 301 302 301 301 300 300 300 298 296 294 292 292 294 294 292 289 289 289 291 296 297 296 297 296 296 296 295 293 291 290 289 288 288 288 288 287 288 288 287 286 286 289 294 296 296 297 296 296 297
317 317 317 316 316 315 314 314 315 314 314 313 313 312 311 308 305 302 300 300 299 299 298 299 299 300 302 302 301 303 303 298 297 299 298 297 300 302 301 300 300 300 299 298 297 294 291 289 290 290 289 289 289 289 290 295 298 297 296 296 295 295 294 294 294 293 293 292 292 292 292 291 292 291 289 288 287 288 291 294 295 296 296 295 295
317 317 317 316 315 315 314 314 314 314 314 314 313 312 311 309 306 303 301 301 300 300 299 299 299 299 300 298 296 300 302 297 293 294 295 296 298 301 301 300 300 299 298 297 297 295 293 291 289 288 289 288 288 289 289 292 296 297 297 296 295 295 293 292 292 294 295 294 294 294 294 293 293 293 291 290 290 290 290 292 293 294 294 294 294
317 317 317 316 315 315 314 314 315 314 313 314 313 312 311 310 308 305 303 302 302 302 302 302 301 299 299 298 297 298 299 295 291 291 292 293 296 299 301 300 299 299 298 298 297 296 296 293 290 288 288 288 288 289 288 289 292 293 293 292 291 292 293 293 293 294 295 295 294 293 293 293 292 291 291 291 291 291 291 291 292 293 292 292 293
317 317 317 316 316 315 314 314 314 314 313 313 313 312 311 311 309 306 304 303 304 304 304 303 302 301 299 299 298 297 294 292 291 290 290 291 292 297 301 300 299 299 298 298 298 297 296 294 290 287 288 288 287 288 288 288 289 289 289 288 288 289 292 294 294 294 294 294 293 292 292 292 291 291 291 291 290 291 292 291 291 292 291 291 291
317 317 317 316 315 315 315 315 314 314 313 313 313 312 311 311 310 308 305 305 305 305 305 303 303 302 301 300 300 298 295 292 291 289 290 290 290 294 299 299 297 298 299 298 298 298 296 293 290 287 287 287 287 288 288 288 288 288 287 288 288 290 292 293 294 294 293 293 293 292 291 291 291 290 291 291 290 291 291 291 290 291 291 290 290
317 317 316 316 315 315 315 315 314 313 314 314 313 312 311 311 310 309 307 306 306 305 305 304 304 304 303 302 301 300 298 295 293 290 289 289 289 291 295 296 296 298 300 298 298 298 296 292 289 287 287 287 287 287 287 287 288 287 287 288 289 291 293 294 293 293 293 292 292 292 291 290 290 290 290 290 291 291 291 291 291 292 292 292 291
317 317 316 316 316 315 315 314 313 313 314 314 313 312 312 311 311 310 308 307 306 306 306 305 305 305 305 304 302 301 299 298 296 292 290 289 289 290 292 294 295 297 299 299 298 297 295 291 288 288 287 286 287 287 287 287 287 287 287 289 291 292 293 293 293 293 292 292 292 291 291 290 289 289 290 291 291 291 291 292 293 292 292 293 293
317 316 316 316 316 315 315 314 313 313 313 313 313 313 312 312 311 310 309 308 307 307 307 306 305 305 305 305 303 302 300 299 298 295 291 289 288 289 291 294 294 295 297 298 296 294 292 290 289 289 287 287 290 291 288 286 287 287 288 290 292 292 292 293 292 292 292 291 291 290 290 290 290 290 290 291 291 290 290 291 292 292 292 293 294
317 316 316 316 315 314 314 313 313 313 313 313 313 313 313 312 311 310 310 309 308 308 307 306 306 306 306 306 304 303 301 299 299 297 293 291 290 289 291 294 294 294 296 297 294 292 291 290 290 289 287 287 289 290 288 287 289 290 290 291 291 290 290 290 291 291 291 291 291 290 290 290 290 290 291 290 290 289 289 290 291 291 291 293 293
316 316 316 316 316 315 314 313 313 313 313 312 312 313 313 312 311 310 310 310 309 309 308 307 307 306 306 306 305 304 302 301 300 298 296 295 294 292 293 295 295 295 296 296 293 292 291 291 290 290 289 289 289 290 290 291 292 291 291 291 290 289 289 289 290 291 291 291 290 290 290 290 290 290 290 290 290 289 289 290 291 291 291 292 292
316 316 316 316 316 314 314 313 312 312 312 312 312 312 312 312 311 311 311 310 310 309 309 309 307 306 307 306 306 305 304 302 301 299 298 297 295 294 296 297 296 297 297 296 294 294 293 292 293 293 293 293 293 293 294 293 292 292 291 291 291 291 290 291 290 290 290 290 290 289 290 290 290 289 290 290 290 289 289 289 291 291 291 292 292
315 316 316 316 316 314 314 313 312 311 312 312 312 312 312 311 311 311 311 310 309 309 309 309 308 307 307 306 306 305 304 303 302 300 299 298 295 294 296 297 297 297 297 295 295 296 295 295 295 295 295 295 295 294 294 293 293 293 291 290 290 291 290 290 290 289 289 289 289 289 289 289 289 289 289 289 290 290 289 289 290 291 291 291 291
315 316 316 315 315 314 313 313 312 311 311 312 312 311 311 311 310 310 310 310 309 308 309 308 308 307 307 306 306 305 304 303 302 300 299 299 296 292 292 294 295 297 297 295 295 296 296 296 297 296 296 295 295 294 294 294 294 293 292 291 291 290 290 290 289 289 289 289 288 288 289 289 288 288 288 288 289 290 289 289 290 290 290 291 291
314 315 316 315 314 314 313 313 313 311 311 312 312 311 311 311 310 309 309 309 309 308 307 307 306 306 305 305 306 306 304 303 302 300 299 298 296 292 290 290 292 294 295 294 295 296 297 297 297 297 296 295 295 294 294 293 293 293 293 293 291 290 290 289 288 289 289 289 288 288 288 288 288 288 287 288 288 289 289 289 289 290 290 290 290
315 315 315 315 314 313 313 313 313 312 311 312 311 311 311 311 310 309 308 307 307 307 306 306 306 305 304 303 304 305 304 303 303 302 300 297 296 293 290 288 290 292 294 294 294 296 297 297 297 297 296 296 295 294 293 293 293 293 293 293 292 291 289 287 287 288 288 287 288 288 287 287 287 288 288 288 288 289 289 289 289 289 290 290 290
315 315 315 315 315 313 313 313 313 312 311 311 311 311 310 310 310 309 308 306 305 305 305 305 305 305 304 303 303 304 304 303 302 302 301 298 296 292 289 288 290 291 293 294 295 296 296 297 297 297 296 296 295 294 293 293 293 293 293 292 292 290 289 287 288 289 288 287 288 287 287 287 287 288 288 288 288 288 288 288 288 289 289 289 290
315 315 314 314 315 314 313 313 313 313 312 311 311 311 310 310 310 309 309 308 306 305 305 305 304 304 304 304 304 304 304 302 301 301 300 299 296 291 289 290 291 292 292 293 294 296 296 297 297 297 296 296 295 294 294 293 293 293 292 292 291 290 289 288 289 288 288 288 288 287 286 287 287 287 287 288 288 288 288 288 288 288 288 288 289
315 315 314 314 314 314 314 313 314 313 312 311 311 311 310 310 309 309 309 309 307 306 306 305 305 304 304 304 304 304 303 303 301 299 299 299 296 291 290 292 294 294 293 294 294 295 296 297 297 297 296 296 295 294 294 294 293 293 292 292 291 290 289 289 288 288 288 288 287 286 286 287 287 286 287 287 287 288 288 288 287 286 285 286 287
314 315 314 314 313 314 314 314 314 313 312 312 311 311 310 310 309 309 309 309 308 307 306 306 305 303 302 303 304 304 303 302 301 299 298 298 295 291 291 294 295 295 295 295 295 295 296 297 297 297 296 296 295 294 294 294 293 293 292 291 291 290 290 289 288 288 288 288 287 286 287 287 287 286 286 286 286 287 287 287 287 286 284 284 285
314 315 315 314 313 314 314 314 313 312 312 311 312 311 311 310 310 309 309 309 308 307 306 306 305 303 301 302 303 303 301 300 299 297 295 293 291 290 291 294 295 296 296 296 295 295 296 296 297 297 296 296 295 294 294 294 293 292 291 291 291 290 289 288 287 287 287 288 287 287 287 287 286 286 285 285 286 286 285 285 286 287 285 285 286
314 314 314 314 313 313 314 314 313 312 312 311 311 311 311 310 310 309 309 308 308 308 307 306 305 304 303 302 301 300 298 297 296 295 293 291 289 290 292 294 295 296 297 297 296 296 296 296 297 296 296 296 295 295 294 293 293 293 292 291 290 290 288 287 287 287 287 287 287 286 286 286 286 285 285 285 285 285 286 285 285 286 286 286 286
315 314 313 313 312 312 312 313 313 312 311 311 311 311 311 310 310 309 309 308 308 308 308 307 306 305 304 302 300 299 298 297 296 295 293 292 291 291 292 294 295 296 297 297 297 297 297 297 296 296 296 296 295 294 294 293 293 293 292 291 291 290 289 287 287 287 287 286 286 286 285 285 285 284 284 285 284 285 285 285 284 284 285 285 285
315 315 313 312 311 311 311 311 312 312 311 311 311 311 311 310 310 310 309 309 309 309 308 308 307 306 304 303 301 300 299 298 297 296 294 293 292 292 292 294 295 296 297 297 298 298 298 297 297 296 296 296 295 295 294 293 293 293 292 291 290 290 289 288 288 288 287 286 285 285 285 284 284 284 284 284 283 283 284 284 284 284 284 284 285
316 315 314 312 311 310 310 310 310 311 310 310 310 311 311 310 310 309 309 309 309 308 308 308 307 307 305 303 301 300 300 299 298 297 295 294 294 293 293 294 295 296 297 298 298 298 298 298 297 297 296 296 295 294 294 293 293 293 292 291 290 290 289 289 288 287 286 285 285 284 284 284 283 284 284 283 282 283 283 284 284 284 284 284 284
316 316 315 313 310 309 309 310 310 310 310 309 310 310 310 310 309 308 308 308 308 308 308 308 307 307 305 303 302 301 300 300 299 297 296 296 295 294 294 295 295 297 297 298 297 298 298 297 297 297 296 296 295 295 294 293 293 293 292 291 290 290 289 289 288 287 286 285 284 283 283 282 282 283 283 282 282 283 284 283 283 284 284 284 284
316 315 315 313 311 310 309 310 310 310 309 309 309 308 308 308 309 308 308 308 308 308 307 307 307 307 305 303 302 300 300 300 300 298 297 297 296 296 296 296 296 297 297 298 298 298 298 298 297 297 296 296 295 295 294 293 293 292 292 291 290 289 289 288 288 286 286 285 284 283 282 282 282 283 283 282 282 283 283 283 283 283 283 284 284
316 315 315 314 313 311 310 310 310 310 309 309 309 308 308 308 308 308 308 308 307 307 306 306 306 307 306 303 301 300 299 300 300 299 298 297 297 297 297 297 297 297 297 297 298 298 298 298 297 297 296 296 295 294 293 293 292 292 292 291 290 289 288 288 287 286 286 285 284 283 283 282 282 283 283 282 282 283 283 283 283 282 282 283 284
316 316 314 314 313 313 311 310 310 310 310 309 309 309 309 307 307 307 307 307 306 306 306 306 306 306 306 304 302 300 300 300 300 299 299 299 298 298 298 298 298 297 297 297 298 297 297 297 297 297 296 296 295 294 293 292 292 292 291 291 290 289 288 288 287 286 286 285 284 284 283 282 282 283 283 282 282 282 283 283 283 282 282 282 283
316 316 315 314 313 313 312 311 310 310 310 310 310 310 309 307 306 305 306 306 306 306 306 306 306 306 306 305 303 301 300 300 300 300 300 299 299 299 299 298 298 298 297 297 297 297 297 297 297 297 296 295 295 294 293 292 291 291 290 290 290 289 288 287 287 286 286 285 284 284 283 283 283 282 282 282 282 282 282 282 282 282 282 282 282
316 316 315 314 314 313 313 312 311 310 310 311 310 310 309 308 306 305 306 306 306 305 306 306 306 305 305 305 304 302 301 301 300 300 300 300 300 300 299 299 298 298 298 297 297 297 297 297 297 297 297 296 295 295 294 293 291 291 290 290 289 289 288 287 286 286 286 285 284 284 283 283 283 283 281 281 282 282 282 282 282 282 281 282 282
316 316 315 314 314 314 313 313 312 311 311 311 310 310 309 308 308 307 307 307 307 306 306 306 306 305 305 305 304 303 302 301 301 301 300 300 300 300 300 300 299 298 298 298 297 297 298 298 297 297 297 297 296 295 294 293 292 291 290 290 289 288 288 287 286 286 286 285 284 283 283 283 283 283 281 280 280 282 282 281 282 282 282 282 282
315 315 315 314 314 313 314 313 313 312 311 311 310 310 309 309 308 308 308 308 308 308 307 306 306 306 306 305 305 304 303 302 302 301 301 301 300 301 300 300 300 299 298 298 298 298 298 298 298 298 298 297 296 295 294 293 292 291 290 290 289 289 288 287 286 286 286 285 284 283 283 282 283 282 281 280 280 281 281 281 282 282 282 282 282
314 314 314 314 314 313 313 313 313 313 312 311 311 311 310 310 309 309 309 309 309 308 308 307 306 306 306 306 306 305 304 303 303 302 302 301 301 301 301 301 300 300 299 298 298 298 298 298 298 299 298 297 296 295 294 294 293 292 291 291 290 290 289 288 287 286 286 285 284 283 282 282 282 282 281 281 281 281 281 280 281 281 281 281 282
Wind_Speed
9 8 7 5 4 2 2 3 4 4 5 6 6 6 6 6 6 6 7 7 6 6 6 6 6 6 6 6 6 7 7 8 8 8 7 8 8 8 8 8 7 8 8 9 9 9 9 9 10 10 10 9 9 8 8 8 8 8 8 7 8 8 8 7 6 7 7 8 8 10 11 11 13 15 14 13 13 12 11 9 9 11 10 9 12
10 9 7 5 4 3 3 4 4 5 6 6 6 5 5 4 4 5 6 6 6 5 5 6 6 5 6 6 6 8 8 8 7 6 6 7 8 8 8 8 8 8 9 10 10 10 10 10 11 11 10 10 10 10 10 10 9 10 10 9 10 10 9 8 7 7 8 9 9 10 13 13 14 14 14 13 13 12 12 10 10 11 12 10 10
11 10 8 6 4 4 4 4 5 6 6 6 5 4 4 3 3 4 5 5 4 4 5 5 5 6 6 6 6 7 6 6 6 6 7 7 7 8 8 9 9 9 10 10 10 10 11 11 12 11 10 11 11 11 11 11 10 11 11 11 11 11 11 11 9 8 9 10 10 11 13 14 15 15 14 13 12 11 12 12 10 12 14 13 12
11 10 9 7 5 4 4 5 6 6 6 5 5 4 4 3 3 4 5 4 3 4 4 5 5 5 6 6 5 5 5 6 6 7 7 7 8 8 8 9 10 10 11 11 11 12 12 12 12 12 11 12 12 13 13 12 12 12 12 12 12 12 12 13 12 10 10 11 12 12 12 13 15 15 15 13 12 11 11 11 11 12 14 15 14
11 11 10 8 6 5 5 6 6 6 6 6 5 4 3 3 3 4 4 3 3 4 4 4 5 5 5 5 6 6 7 7 7 7 7 8 8 8 9 9 10 11 11 12 12 13 13 13 14 13 13 13 13 14 14 14 13 13 13 12 13 13 13 13 13 12 11 11 12 13 13 13 13 15 16 15 13 11 9 10 11 12 14 15 16
12 11 10 9 7 6 6 6 7 7 7 7 5 2 2 2 3 3 3 3 3 4 4 4 4 5 6 6 7 7 7 7 7 7 7 8 8 8 9 9 10 11 12 12 13 14 14 15 15 15 14 14 14 14 14 14 14 14 14 13 12 12 13 12 12 12 12 12 12 12 14 14 13 15 16 15 14 13 11 10 10 11 12 15 17
13 12 11 9 8 7 7 7 8 8 8 7 4 2 2 2 2 3 3 3 4 4 4 5 5 5 6 7 7 7 7 7 8 7 7 7 8 8 9 9 10 11 11 12 13 14 16 16 17 18 17 16 14 13 12 13 13 13 14 13 12 12 12 12 12 12 12 13 13 13 13 14 14 14 15 14 13 15 14 12 11 11 10 13 17
14 13 12 10 9 8 8 8 8 9 8 7 5 4 3 2 2 3 3 3 4 4 5 5 5 6 6 6 7 7 8 7 7 7 7 7 7 8 8 9 10 10 11 12 13 14 16 17 18 19 20 20 18 16 14 12 12 13 13 13 13 13 12 12 12 13 13 12 13 13 13 13 14 14 15 15 14 16 16 14 12 12 10 10 15
15 14 12 11 10 9 9 8 8 9 9 7 6 5 4 2 2 3 4 4 4 4 4 5 5 6 6 7 7 8 8 8 7 6 6 6 7 8 8 9 9 10 11 12 13 14 15 17 19 20 20 21 21 21 21 19 17 15 14 13 13 13 13 13 13 13 13 13 12 13 13 14 15 15 15 16 15 14 15 14 12 12 11 8 12
16 14 13 12 11 10 10 9 9 10 9 7 6 6 5 3 3 4 4 4 4 4 4 5 5 5 6 7 8 8 9 10 9 8 7 7 7 7 8 9 9 9 10 11 11 12 13 14 17 19 20 21 22 22 22 23 23 22 20 18 15 13 13 13 14 13 13 13 12 12 12 13 14 14 14 14 14 13 14 14 12 12 12 9 9
16 15 14 13 12 12 11 10 10 10 10 8 7 7 5 4 4 5 5 5 4 4 4 5 5 6 6 7 8 8 9 11 10 8 8 9 8 7 8 9 9 9 9 9 10 10 10 11 11 12 14 16 19 21 22 23 23 23 23 23 21 19 15 13 13 13 13 13 13 12 12 13 14 14 14 14 14 14 13 13 13 11 12 11 9
17 16 15 14 14 13 12 11 11 11 10 9 8 7 6 5 5 5 6 5 5 5 5 5 6 6 6 7 8 8 9 10 10 8 8 9 10 8 7 8 8 8 9 9 9 9 9 9 9 9 10 11 13 15 19 21 22 22 22 22 23 23 21 18 14 12 12 12 13 13 12 12 13 14 15 15 14 14 13 12 13 12 10 11 10
17 16 15 15 15 13 13 12 12 12 11 10 10 8 7 6 6 6 6 6 6 6 6 6 7 6 7 7 8 8 8 9 9 9 7 9 11 9 7 8 8 8 9 8 8 8 8 9 9 8 9 10 8 8 11 13 16 18 18 19 21 21 22 22 19 16 13 12 12 13 12 12 12 13 14 15 14 13 13 13 13 12 10 10 10
17 16 16 16 15 14 14 14 13 12 12 12 11 9 8 7 7 7 7 7 7 7 7 7 7 7 7 7 8 8 8 8 8 8 7 8 11 10 7 8 9 8 9 9 9 9 8 8 9 8 7 8 7 7 7 8 10 12 13 14 16 18 19 19 19 18 16 14 12 12 12 12 12 13 14 15 13 12 12 12 12 13 10 7 7
17 17 17 17 16 15 15 15 14 14 13 13 12 10 9 9 8 8 8 7 7 7 7 7 8 7 7 7 7 7 7 7 7 7 7 9 11 9 7 7 8 8 9 9 9 9 9 8 9 9 8 9 10 10 9 8 9 10 11 11 13 15 17 17 17 17 16 15 13 12 12 12 12 13 14 14 12 10 11 11 10 12 10 4 3
18 18 18 18 17 17 16 16 15 15 15 14 13 12 11 10 9 9 9 8 8 7 7 7 8 8 8 7 7 7 7 7 7 6 7 9 10 7 6 7 8 8 9 9 9 9 9 8 8 8 9 10 11 12 11 9 8 9 9 9 9 12 15 16 15 14 14 13 12 11 11 11 11 12 13 13 13 12 10 8 8 11 9 7 6
19 19 19 19 19 18 17 17 17 16 16 16 14 13 13 12 11 10 10 9 9 8 8 8 8 8 8 7 7 7 7 7 6 6 6 8 8 5 5 6 7 7 8 8 8 8 8 8 8 7 8 10 10 11 12 10 7 7 8 7 8 9 10 11 12 13 13 12 12 11 11 11 13 14 14 12 13 14 12 10 11 12 11 10 8
20 20 20 20 20 19 18 18 18 17 17 17 15 15 14 13 12 12 11 11 10 9 9 8 8 8 8 7 7 7 7 8 7 6 6 9 8 4 4 6 6 7 8 8 8 8 9 11 10 8 8 10 10 9 10 9 6 5 6 6 7 8 7 7 7 9 10 10 11 12 12 13 14 14 14 13 14 15 13 11 13 12 10 10 10
21 21 21 20 20 20 19 19 19 18 18 17 16 16 15 14 13 13 12 12 11 10 9 9 8 8 7 8 8 7 6 8 8 7 7 9 9 4 3 6 7 6 7 8 8 8 8 10 11 10 10 10 9 8 8 8 6 4 4 6 7 7 6 5 4 4 5 6 7 8 8 10 10 9 11 13 14 15 13 11 11 11 10 10 10
21 20 20 20 20 20 19 19 19 19 18 18 17 16 15 15 14 14 13 13 12 11 10 9 9 8 7 8 8 7 6 7 8 8 8 10 10 6 4 5 7 6 7 8 8 8 8 8 9 10 10 9 9 7 7 8 6 4 3 5 6 6 5 5 5 4 3 3 4 4 4 6 6 6 8 11 12 12 12 11 11 11 10 10 10
21 20 20 21 21 20 20 20 20 19 19 18 18 17 16 16 16 16 15 14 13 12 11 10 10 9 8 8 8 7 7 8 8 9 9 10 11 9 5 4 6 7 7 7 7 8 7 7 7 9 9 8 8 7 6 7 8 7 6 7 7 8 6 4 3 4 3 3 4 5 5 6 7 7 8 9 10 10 10 11 11 10 11 10 10
20 21 21 21 21 20 20 20 20 19 19 19 19 18 17 17 17 17 16 15 14 14 13 11 11 10 9 8 8 7 8 8 8 9 9 9 12 11 6 4 7 7 6 7 7 7 7 7 7 9 9 7 7 7 6 7 8 9 9 9 8 10 8 3 3 4 4 5 6 7 7 7 7 8 8 8 9 10 9 9 10 9 9 10 10
20 21 21 21 21 20 20 21 20 19 19 20 20 19 19 18 17 17 16 16 16 15 14 13 12 11 10 10 9 8 8 8 8 9 9 9 11 13 10 9 9 7 6 6 7 7 8 8 8 9 8 7 6 6 6 7 8 8 9 8 9 10 8 4 3 5 6 6 7 7 8 8 8 8 9 8 9 9 9 8 8 7 7 7 8
19 20 21 21 21 21 20 21 21 19 20 21 20 20 20 19 18 18 17 17 16 16 15 14 13 12 12 11 10 10 9 9 8 9 10 10 11 13 13 12 11 8 5 6 7 8 8 8 9 9 8 7 6 6 5 6 7 7 7 8 9 8 5 3 4 5 5 6 7 7 8 8 8 8 8 8 8 8 8 7 7 6 5 5 6
19 20 20 21 21 21 20 20 21 20 20 21 21 20 20 20 19 18 18 18 17 16 16 16 14 14 13 12 12 11 10 10 9 9 10 10 11 13 13 13 13 10 7 6 8 9 8 8 8 8 7 6 6 5 5 5 6 6 7 8 7 5 4 4 5 5 5 6 6 6 7 7 7 7 7 7 7 7 7 7 6 5 5 5 4
19 19 20 20 21 21 20 20 21 20 21 21 20 20 20 20 19 19 19 19 18 17 17 16 15 15 14 13 13 13 12 12 10 10 11 11 12 13 14 14 14 13 9 8 10 10 8 7 7 7 6 6 5 4 4 5 6 5 6 6 5 4 4 5 5 5 5 6 6 6 6 5 5 5 6 6 6 7 8 7 6 6 6 5 4
19 19 20 20 21 22 21 20 21 21 21 21 21 20 20 20 19 20 19 19 19 18 17 17 16 16 15 14 14 14 13 13 12 12 13 12 12 14 15 15 16 15 12 10 11 11 9 7 7 6 6 6 6 6 5 5 4 3 3 4 4 5 5 5 5 4 5 5 5 5 5 5 5 5 5 6 6 7 8 7 6 7 6 6 5
19 20 20 20 20 21 22 21 21 21 21 22 22 21 21 21 21 21 21 21 20 20 19 18 17 16 16 15 14 14 14 14 14 14 15 14 13 14 15 16 17 16 13 12 13 12 10 8 7 6 6 6 7 7 5 4 3 3 3 3 3 4 4 5 5 4 4 4 4 4 4 4 5 5 5 5 6 7 7 7 6 6 6 5 5
19 19 20 20 20 20 21 22 22 21 21 22 22 21 21 21 21 20 21 21 20 19 19 18 17 17 16 15 15 15 14 14 16 17 17 16 15 15 15 16 17 16 15 15 15 12 11 10 9 9 9 8 8 8 7 6 5 4 3 3 3 2 2 2 3 3 3 3 3 4 4 4 4 5 5 5 5 5 6 6 6 6 6 5 5
19 19 19 19 19 20 20 21 22 22 21 21 22 21 21 22 23 21 20 21 22 21 19 17 16 16 15 15 15 15 13 13 15 17 16 16 16 17 17 17 17 16 17 18 16 12 11 11 11 10 10 9 8 8 7 6 6 5 4 4 3 3 2 2 2 2 2 3 3 3 4 4 4 4 5 5 5 4 5 6 5 6 6 5 5
19 19 20 20 21 21 21 21 22 22 21 21 22 21 20 22 24 24 22 21 23 26 24 20 17 17 16 14 14 16 15 14 13 13 14 15 17 17 18 19 19 19 19 19 16 12 12 12 11 10 10 9 8 8 7 6 6 5 5 5 4 3 3 2 2 2 1 2 2 3 3 3 4 4 4 5 4 4 5 5 5 5 5 5 6
19 20 20 21 21 22 22 21 22 22 22 22 22 22 20 19 22 27 27 25 23 25 27 26 24 22 19 16 13 15 17 18 16 14 14 15 17 17 18 19 20 20 20 19 16 13 12 12 11 10 10 9 8 8 7 7 6 6 6 6 5 4 4 3 3 2 1 1 2 2 2 2 3 3 3 4 4 4 5 5 5 6 5 5 5
21 21 21 21 22 23 22 21 22 23 23 22 23 23 22 20 20 22 27 28 26 25 27 29 29 28 26 22 17 15 16 18 18 17 16 16 16 17 18 19 19 20 20 19 16 14 13 12 11 10 10 10 9 9 8 8 7 7 6 6 6 5 5 5 4 3 2 2 2 1 1 1 1 1 2 3 3 3 4 5 5 5 5 5 5
22 22 22 22 22 23 24 23 22 23 23 23 23 23 23 22 20 19 20 23 24 25 27 30 31 30 29 28 25 21 19 18 17 18 19 17 16 17 19 19 19 19 20 20 17 15 13 13 12 11 11 10 10 9 9 9 8 7 7 7 6 6 6 5 5 4 4 3 3 2 1 1 0 1 1 1 2 2 3 4 5 5 5 6 6
23 23 24 24 22 22 24 24 23 23 23 23 23 23 22 22 21 19 18 18 20 22 24 27 32 34 32 30 28 27 25 21 18 18 19 20 19 19 20 20 19 19 21 21 19 16 15 14 13 12 12 11 11 11 10 10 9 9 8 8 8 7 7 7 6 6 5 4 3 3 2 2 1 0 0 0 1 1 2 3 3 4 5 5 5
22 21 24 26 23 21 22 24 24 23 24 24 24 24 23 22 21 21 19 17 18 19 20 21 25 31 34 32 30 28 27 24 21 20 21 22 22 23 23 20 19 20 21 21 20 18 16 15 14 13 13 12 12 12 11 11 11 10 9 9 9 9 8 8 7 7 6 5 5 4 4 3 2 2 1 1 1 0 1 1 2 3 4 4 4
23 21 22 24 25 22 21 23 24 25 25 25 24 23 23 23 22 21 20 18 17 18 19 18 18 22 29 32 32 30 27 25 22 21 21 22 25 26 24 21 19 20 20 21 21 19 17 16 15 14 14 14 13 13 12 12 12 11 11 11 10 9 9 10 9 8 7 6 6 5 5 4 3 3 2 2 2 1 0 0 0 0 2 4 4
25 24 23 24 26 25 23 22 24 26 25 24 24 23 23 23 23 22 22 21 19 18 19 19 18 19 24 29 32 32 28 24 22 22 23 26 29 28 24 21 20 20 20 20 21 21 19 18 17 16 15 15 15 14 14 14 13 13 13 12 11 10 12 13 11 9 7 7 7 6 6 5 5 4 3 3 3 2 2 1 1 1 1 2 3
23 24 26 26 27 26 25 22 23 25 25 24 24 24 23 23 23 23 23 23 22 21 21 20 19 19 21 25 30 31 28 26 26 26 27 30 31 29 25 22 21 21 20 20 21 21 20 19 18 18 17 16 16 16 15 15 14 14 14 13 12 12 13 13 11 10 9 9 8 7 7 6 6 5 5 4 4 3 3 2 1 1 1 1 1
23 24 28 30 29 27 25 23 22 23 25 25 24 24 24 24 24 24 24 24 24 23 23 22 22 21 20 25 31 35 32 28 28 28 27 28 30 29 26 24 23 22 22 21 21 21 21 20 19 19 18 18 17 17 17 16 15 15 15 14 14 13 13 13 12 11 11 10 9 9 8 8 7 6 6 5 5 4 4 3 3 2 2 1 1
23 22 26 33 34 29 24 23 23 23 25 26 25 25 26 25 25 25 24 25 25 24 24 24 24 22 23 28 34 38 35 29 27 27 27 27 29 29 28 27 25 24 23 23 22 21 21 21 20 20 19 19 19 18 18 17 17 16 15 15 15 14 13 13 13 13 12 11 11 10 9 9 8 7 7 7 7 6 5 4 4 3 3 3 2
23 21 23 29 34 30 24 23 25 25 24 24 25 26 25 25 25 26 25 25 26 25 25 25 24 23 25 30 35 37 34 29 26 27 28 27 28 30 30 29 28 26 25 24 23 22 22 21 21 20 20 20 21 20 20 19 19 18 17 17 16 15 15 14 14 14 14 13 13 12 11 10 10 9 8 9 8 6 6 5 5 4 4 4 3
24 23 22 24 29 30 28 26 25 24 24 24 24 25 25 24 24 26 27 26 25 25 25 25 24 23 26 31 36 38 34 28 26 27 28 28 28 29 30 31 30 28 26 25 24 23 22 22 22 22 22 22 22 23 22 22 21 20 19 19 18 18 17 15 15 16 15 14 14 15 15 13 11 10 10 10 9 7 7 6 5 5 5 4 4
23 23 22 21 23 27 28 27 24 23 24 26 26 25 25 24 23 24 25 26 25 25 25 25 24 23 24 29 36 40 37 30 27 28 29 29 30 30 30 31 31 29 28 26 25 24 24 23 23 23 22 23 23 24 23 22 21 21 21 20 20 21 20 18 18 18 17 16 16 18 18 16 13 11 11 11 10 9 8 7 7 6 5 5 4
23 23 22 22 22 23 24 26 24 23 24 26 25 25 26 27 25 22 22 23 24 24 24 24 25 25 25 28 35 41 39 33 30 30 30 30 31 32 31 31 31 31 31 29 27 26 25 24 24 25 24 24 25 27 27 24 22 22 22 21 22 24 24 23 21 21 20 19 18 18 18 17 15 13 12 12 12 11 9 9 8 7 6 5 5
23 22 22 23 23 22 23 24 25 24 23 24 25 25 25 26 25 22 20 21 23 24 24 25 26 26 24 25 31 37 37 34 32 31 31 31 31 31 31 31 31 33 35 33 30 30 31 29 27 28 30 29 29 31 32 29 26 26 25 23 23 25 25 24 24 24 23 22 20 17 17 17 17 15 14 13 12 11 10 9 9 8 7 6 6
21 22 22 23 22 22 22 22 24 24 24 23 24 24 23 24 27 29 28 28 29 28 26 25 27 27 25 23 25 31 34 34 33 32 32 32 31 31 31 31 31 33 36 38 36 37 38 37 33 32 35 36 35 34 34 32 31 32 30 27 25 25 25 25 25 26 25 24 21 18 17 17 16 16 16 15 13 12 12 11 9 9 8 7 6
21 22 22 22 22 22 21 21 23 24 24 23 23 23 22 23 27 31 31 30 30 29 27 25 25 28 29 28 26 27 31 34 34 33 32 32 32 31 31 31 33 35 37 39 41 42 42 42 41 40 39 40 39 38 37 35 34 35 35 32 30 29 28 28 28 27 26 26 23 20 18 17 16 16 18 18 15 13 13 12 10 9 9 8 7
22 22 21 22 22 22 22 21 22 23 23 22 21 21 21 22 24 27 28 28 27 27 27 26 25 26 29 30 28 26 28 30 32 32 32 32 32 32 31 31 35 37 37 37 42 46 45 44 45 44 43 42 41 41 40 38 37 37 37 35 33 32 32 31 30 29 28 27 25 22 20 18 16 16 19 20 18 14 13 12 11 10 9 8 8
23 22 21 22 22 22 22 21 21 21 22 22 21 21 22 23 24 25 26 26 25 25 26 27 27 27 27 29 29 27 27 28 29 30 31 31 31 32 32 31 34 37 38 39 42 45 46 46 47 46 46 45 44 43 43 43 41 40 39 37 36 35 34 33 31 30 28 27 26 24 21 19 18 17 18 19 19 16 14 13 12 11 10 9 9
23 23 22 21 21 21 21 21 20 20 22 23 24 24 23 22 21 21 22 23 24 25 25 27 28 28 28 29 29 29 30 31 30 27 28 30 31 30 31 31 33 36 40 41 40 40 42 46 49 49 48 47 47 46 46 46 45 44 42 40 38 37 36 34 33 31 29 27 27 26 23 21 20 19 18 18 17 17 16 15 14 12 11 10 9
Wind_Direction
155 145 136 120 110 118 134 135 126 112 109 109 99 79 60 43 31 27 20 12 6 9 20 33 40 41 46 48 50 60 70 77 76 63 44 32 27 30 30 31 38 41 41 41 40 38 35 36 36 31 29 30 30 31 30 29 30 30 31 26 28 25 3 9 70 90 66 53 50 44 37 38 41 37 31 29 28 31 35 39 41 39 39 40 38
157 147 141 130 123 135 149 150 142 132 131 127 110 87 67 50 37 31 21 14 13 19 35 49 50 51 61 63 71 81 76 64 52 36 28 33 37 39 39 40 46 46 45 45 42 40 39 39 37 33 32 34 34 35 32 33 37 37 37 36 34 34 22 14 42 72 68 54 51 48 42 40 40 34 29 28 26 28 34 40 46 38 34 41 41
156 149 144 137 134 149 162 161 155 150 148 140 121 99 82 65 49 34 23 18 24 39 56 63 59 62 73 77 82 82 65 46 41 40 42 47 50 50 48 48 51 50 49 48 45 45 44 42 40 35 35 39 41 40 37 36 40 41 41 41 38 37 34 30 40 62 68 56 46 44 42 40 38 32 28 28 27 32 37 40 47 40 34 39 40
158 152 148 145 146 157 169 170 164 163 160 148 128 110 90 74 52 30 24 29 47 66 75 75 72 73 76 80 81 72 61 56 55 54 54 55 56 57 57 57 56 55 54 51 48 47 46 44 41 37 39 43 43 42 41 40 43 44 44 46 46 44 43 44 48 58 67 61 49 42 41 41 38 31 27 28 28 34 42 42 43 40 35 36 35
161 156 152 152 156 163 172 174 170 171 169 152 135 116 89 72 45 25 29 49 71 88 93 87 85 86 83 82 80 74 70 69 66 63 61 60 60 61 62 62 61 60 57 54 52 50 48 45 41 39 42 46 46 44 42 43 47 47 47 50 50 50 51 52 55 59 64 63 54 45 40 38 37 32 26 24 25 29 41 44 41 37 34 33 31
164 159 157 157 162 167 175 178 175 175 170 155 140 121 94 73 35 29 45 73 88 99 102 96 93 94 89 84 81 75 69 66 65 66 64 64 65 66 66 65 65 63 60 58 56 54 51 48 44 42 42 43 44 44 44 46 48 46 45 48 51 53 55 55 57 61 62 62 57 49 42 36 32 30 25 22 24 24 25 33 37 35 32 31 28
165 161 161 162 166 172 178 181 179 176 173 162 151 145 129 82 34 46 75 89 98 105 105 101 98 95 91 84 77 71 68 67 66 66 68 69 69 71 71 71 69 67 65 63 62 59 57 53 51 52 53 52 49 47 45 46 47 48 45 44 47 52 55 57 58 59 60 59 56 51 44 38 32 29 23 20 26 26 19 19 23 25 30 33 28
167 164 164 166 169 174 179 182 180 176 175 167 158 154 139 88 52 81 99 101 103 106 108 109 106 100 93 83 77 72 68 65 65 66 68 71 76 77 75 76 76 73 70 69 66 65 62 60 60 62 63 63 64 66 65 58 50 46 43 43 48 51 54 56 56 57 57 56 53 49 45 40 33 26 21 19 22 20 12 10 12 12 18 34 31
169 166 168 169 170 174 176 180 181 178 177 174 162 155 143 107 92 106 112 112 109 109 114 117 115 110 100 89 84 76 67 68 77 84 81 75 77 79 77 77 79 78 75 73 71 70 68 67 67 68 69 70 71 73 74 73 68 60 52 48 48 49 54 56 55 55 54 52 51 47 42 39 30 22 19 16 13 8 4 6 11 9 9 26 37
169 168 172 172 171 173 174 178 183 181 181 179 166 158 147 123 117 122 124 122 118 119 123 124 124 117 107 98 91 80 74 76 81 93 102 93 81 79 82 79 77 79 78 76 76 74 73 73 69 66 67 70 73 75 75 75 73 70 68 67 61 55 53 53 52 53 52 50 45 40 39 36 27 20 15 8 3 1 2 5 8 9 10 20 34
170 171 175 173 171 173 172 176 184 185 184 180 169 163 152 135 131 133 132 131 129 131 133 133 133 124 115 109 98 89 86 83 79 83 100 102 90 79 81 80 76 78 78 77 79 79 78 78 71 64 65 66 68 72 75 76 74 72 71 70 69 67 62 57 51 47 50 51 43 36 36 32 24 19 12 3 360 358 359 4 7 10 14 18 22
172 172 176 174 172 174 173 176 182 186 187 180 171 166 157 145 140 140 140 139 139 141 141 142 141 135 127 119 109 103 98 90 83 80 91 103 98 85 80 81 77 77 77 78 81 80 81 81 76 75 78 76 69 68 71 73 72 71 69 69 70 70 68 68 63 50 46 48 45 39 30 23 22 19 8 358 352 351 356 4 7 8 13 18 20
175 174 177 176 175 175 174 177 182 186 187 181 172 168 164 155 147 145 146 145 145 146 147 148 148 146 139 127 119 117 110 98 89 82 85 102 101 88 82 83 81 78 77 76 79 81 82 83 81 79 76 74 72 68 67 66 64 63 62 63 65 67 68 69 69 65 56 49 47 42 29 21 19 12 4 358 350 349 357 3 4 6 8 11 16
177 177 179 178 177 176 176 178 182 186 186 181 175 173 169 159 152 151 151 150 151 151 151 153 153 151 148 137 128 128 124 111 97 86 85 101 101 91 86 87 84 82 79 77 78 79 78 81 84 82 73 74 84 82 71 70 70 67 64 62 62 63 66 66 64 65 62 54 50 42 32 29 23 14 13 10 1 351 347 347 348 346 336 333 358
179 180 181 180 178 178 179 180 182 185 186 182 178 177 170 161 156 157 155 155 155 155 155 160 160 157 157 148 137 139 141 128 110 95 92 102 101 92 88 92 89 85 83 81 80 79 78 80 84 83 81 90 100 100 90 81 81 79 76 72 66 64 66 65 62 63 63 60 57 48 40 39 34 28 26 20 14 357 331 325 329 329 323 314 8
183 182 181 181 180 180 180 180 182 185 185 183 182 178 171 166 163 161 160 159 158 159 159 163 165 164 163 158 149 151 158 149 128 114 106 105 102 96 97 100 96 92 90 85 83 81 76 77 84 88 91 96 100 102 98 87 80 81 81 80 76 68 64 63 62 62 63 62 60 55 48 45 45 42 32 23 25 16 347 340 351 349 3 35 33
185 183 183 182 181 181 181 181 182 185 185 185 184 179 173 170 167 165 165 163 161 162 161 162 167 169 167 168 161 157 170 174 154 138 129 118 111 111 117 111 103 103 99 91 87 89 94 97 90 85 97 103 100 100 99 91 82 85 87 84 84 79 69 63 63 64 67 66 64 63 59 56 57 52 39 32 35 29 15 10 9 3 17 33 21
186 185 185 184 181 181 182 182 182 184 186 186 184 179 176 173 170 169 169 166 164 163 162 160 164 167 168 174 171 163 177 191 178 163 154 137 128 132 134 124 119 114 110 103 96 97 112 120 111 102 110 111 106 107 105 96 86 90 95 89 84 83 78 70 66 63 63 62 60 59 54 50 51 46 38 42 48 44 32 12 3 5 18 27 12
188 187 186 184 182 181 181 183 183 185 187 187 184 182 179 174 172 171 170 169 165 163 163 161 161 163 166 178 180 170 180 198 191 181 173 153 142 148 152 136 131 127 123 118 109 102 109 120 120 118 118 114 111 115 114 106 96 88 98 97 88 83 79 80 87 74 57 50 47 43 36 36 38 32 29 36 44 46 36 16 7 10 16 21 12
190 186 184 182 181 181 181 183 184 185 187 186 185 186 183 177 173 172 172 172 168 166 166 163 160 159 161 171 177 170 176 196 195 188 184 169 154 152 163 152 142 139 138 132 126 119 112 114 122 123 119 117 115 116 119 117 106 83 84 98 99 101 98 89 89 88 73 49 40 35 27 29 31 28 26 28 30 34 31 23 19 14 12 18 16
188 183 182 182 180 179 181 183 184 186 187 186 186 189 188 180 175 175 175 174 171 169 169 166 163 162 162 166 172 173 180 193 196 192 189 178 164 155 156 167 156 148 149 145 141 138 126 117 127 128 124 122 119 115 118 116 107 99 101 105 109 115 116 93 60 61 55 36 36 34 31 33 32 30 31 29 26 27 25 22 23 20 19 21 14
185 181 182 182 179 179 180 181 182 185 187 186 187 191 191 185 180 179 179 177 173 172 173 172 170 167 167 169 172 179 191 197 196 194 193 189 176 163 153 171 172 161 157 156 149 142 134 131 136 133 129 128 125 121 117 108 104 102 102 103 103 98 93 67 24 39 40 35 38 35 30 31 31 28 29 28 27 28 25 23 25 25 26 29 25
184 180 182 181 179 178 179 179 182 185 187 188 190 191 192 190 186 184 183 179 177 177 178 180 178 175 175 177 175 179 191 198 199 197 195 195 187 174 165 172 175 167 163 163 154 143 138 141 143 135 129 129 128 122 114 106 102 99 97 99 95 83 74 57 41 45 40 34 37 36 30 29 28 25 26 24 22 24 25 24 26 24 22 28 31
183 180 181 181 178 178 178 180 182 186 188 189 192 194 194 191 189 188 187 184 183 183 184 186 187 185 184 184 183 181 184 193 203 202 197 197 194 185 179 178 175 171 172 166 155 148 148 150 145 134 131 135 134 126 118 107 100 96 96 93 82 69 59 49 45 43 40 36 37 38 34 29 27 25 23 19 14 15 15 13 14 14 9 11 17
184 181 181 180 178 177 179 181 184 187 189 190 193 195 195 192 191 191 191 190 190 190 190 191 193 194 191 189 187 185 183 187 199 205 200 197 196 191 186 182 178 176 172 164 163 165 166 158 141 131 134 137 129 120 117 110 103 103 101 88 72 57 47 48 45 37 39 38 33 34 34 31 29 24 18 15 13 12 11 6 3 5 359 352 358
187 183 182 181 179 178 179 183 186 189 191 193 195 196 195 194 194 193 194 195 195 195 194 195 197 198 197 193 189 186 184 185 192 203 203 199 198 194 188 184 185 186 183 180 182 180 175 161 142 137 144 144 140 150 151 128 111 101 92 80 69 60 52 50 44 37 38 38 34 34 32 27 23 17 11 15 20 19 16 10 8 13 8 357 3
189 187 185 182 179 180 182 184 186 189 192 195 198 198 197 197 198 197 198 198 198 199 198 197 199 200 198 196 191 187 186 186 189 196 198 196 197 195 190 188 190 192 190 189 189 186 179 170 156 151 157 157 164 181 174 139 117 103 90 83 81 79 74 68 62 50 40 34 30 31 27 20 18 14 15 24 27 21 16 11 9 13 8 2 14
191 190 187 183 182 184 185 184 186 190 193 196 200 200 198 199 201 202 203 201 200 200 199 198 200 201 199 198 192 189 191 193 192 191 190 188 187 187 188 190 190 190 187 182 181 183 183 180 174 173 175 175 179 186 183 169 168 162 131 113 104 91 77 69 69 60 43 35 31 26 21 19 20 17 17 27 29 22 17 14 11 8 3 3 21
192 191 188 186 185 185 186 187 189 192 194 198 202 204 202 202 203 205 207 207 205 204 201 201 202 201 200 200 196 194 197 199 198 197 197 194 189 183 184 188 187 189 189 180 172 174 181 184 188 191 191 193 193 192 189 184 176 162 147 142 130 110 87 71 73 67 45 38 33 25 20 19 18 17 18 22 27 24 20 17 10 5 4 10 24
191 191 190 190 189 186 187 189 192 194 196 198 202 205 206 206 207 207 208 209 210 209 206 204 203 202 203 203 200 201 203 201 203 209 212 209 200 191 190 189 184 187 194 187 176 179 189 193 197 198 197 199 199 195 191 187 181 172 162 157 147 133 128 109 92 84 64 49 40 29 24 20 16 16 18 18 19 21 19 17 11 7 10 16 22
191 192 193 193 190 188 190 192 193 196 198 199 200 203 205 207 209 210 210 209 211 212 212 210 207 203 204 204 202 206 208 206 208 213 213 211 207 201 199 196 190 192 198 193 186 192 202 201 202 203 201 202 200 195 192 192 191 185 172 164 162 156 148 139 126 119 102 75 56 39 29 25 19 19 19 13 10 14 16 15 14 13 13 17 20
195 195 195 194 190 189 192 193 194 196 199 200 201 203 203 203 206 211 214 214 215 216 217 219 219 216 215 212 204 206 213 216 216 214 207 207 209 207 205 203 199 199 202 198 195 205 211 207 208 206 202 202 200 194 195 197 194 192 187 179 172 166 165 167 157 143 133 121 95 59 42 38 24 18 19 11 3 12 19 16 14 13 10 12 16
200 199 196 192 189 190 194 195 195 197 200 202 202 204 206 206 203 206 211 216 219 221 222 223 225 225 226 223 214 210 218 223 222 219 213 209 210 208 206 204 203 205 205 201 202 213 216 213 213 209 203 203 201 194 195 200 197 195 195 187 175 170 177 180 168 154 152 145 129 111 87 61 23 352 7 11 7 14 19 14 11 10 7 6 8
204 202 198 193 189 190 193 196 197 199 201 204 204 205 208 210 208 204 202 206 214 220 223 225 226 225 226 226 221 219 223 226 223 219 215 211 209 207 204 201 203 207 207 205 209 217 219 217 216 211 205 204 200 194 196 199 198 197 195 189 179 174 178 183 177 172 173 165 150 146 148 126 46 338 346 6 10 19 20 15 14 12 8 3 359
206 206 203 198 194 192 193 196 198 200 201 204 206 207 208 209 210 209 203 199 204 211 217 222 225 224 224 224 222 223 225 224 218 214 213 210 206 202 197 194 197 203 206 210 216 220 220 219 217 212 207 203 198 197 198 198 198 199 195 189 184 181 183 187 186 184 184 180 171 166 161 161 165 161 52 13 23 30 23 22 22 15 5 357 352
206 208 205 203 200 198 197 197 198 199 201 203 204 206 207 206 207 209 209 206 205 207 210 214 219 222 224 223 223 224 226 224 216 209 208 209 206 199 193 190 194 199 203 209 215 220 222 222 219 214 210 204 199 199 200 198 199 200 196 192 190 189 190 191 188 186 187 183 178 177 176 176 181 189 194 198 172 101 39 35 36 21 9 4 353
204 207 205 203 203 203 203 202 201 201 201 202 202 202 203 205 205 206 209 209 207 208 210 205 201 208 215 219 221 223 223 221 216 210 208 209 207 201 196 195 198 200 203 206 211 215 219 220 218 214 210 205 201 201 200 199 198 197 194 193 193 191 193 193 188 185 189 188 184 185 184 182 183 187 194 203 197 170 146 75 153 344 6 13 2
207 208 205 202 201 202 203 204 204 203 200 200 202 202 201 202 202 204 208 211 209 210 212 203 190 192 201 208 215 218 215 209 206 204 204 205 205 202 201 203 204 204 206 206 207 211 215 217 216 214 211 206 202 201 200 199 197 195 192 192 193 195 200 201 196 192 194 194 191 189 186 185 186 185 186 195 196 184 180 206 221 240 295 341 344
210 211 209 205 203 203 203 201 200 201 200 200 203 202 200 200 201 202 207 211 211 212 213 208 201 199 197 196 201 205 201 195 195 196 197 200 202 202 204 207 208 209 209 208 206 209 212 214 214 212 210 206 203 201 200 199 197 195 193 190 190 196 202 202 198 196 198 197 194 192 189 186 186 188 188 192 195 193 194 201 215 236 254 275 317
208 210 210 209 206 205 205 201 197 198 200 201 203 202 200 199 200 202 205 210 212 212 212 211 210 207 197 190 195 198 194 190 193 193 192 195 200 201 204 208 210 211 210 209 207 208 210 211 212 209 207 205 202 200 201 200 197 195 194 192 191 194 197 197 195 195 197 197 194 192 190 187 187 188 191 193 195 195 195 199 207 218 236 254 275
206 206 208 211 210 207 203 201 201 201 201 201 203 204 202 200 200 202 204 207 210 211 211 212 213 210 200 198 204 206 199 192 193 194 194 195 198 200 203 208 211 211 211 210 209 209 209 209 209 207 205 204 201 199 199 199 198 195 193 193 194 196 196 197 198 195 192 192 193 191 190 190 189 189 193 196 195 195 196 202 209 214 220 235 252
206 204 205 209 210 208 204 204 207 208 205 204 206 208 205 200 198 200 203 205 208 210 211 211 213 210 204 206 211 211 204 196 194 196 197 199 200 201 205 208 210 212 212 211 210 210 209 207 206 205 203 202 200 198 197 197 197 196 195 193 193 195 196 197 197 194 191 191 193 192 191 192 192 192 195 197 195 195 200 206 212 220 223 226 236
206 205 202 202 204 206 207 208 210 208 206 206 209 210 207 203 199 200 202 205 206 208 210 211 211 208 205 209 213 213 207 201 199 199 199 201 202 203 206 210 211 212 213 212 211 211 209 206 205 204 203 202 200 198 198 198 196 196 196 194 192 194 196 197 196 195 193 192 195 199 200 199 197 196 198 199 196 194 199 204 209 219 227 225 227
204 204 202 199 200 204 207 209 209 208 208 210 211 210 207 207 205 203 203 204 204 205 207 209 208 206 203 205 208 209 206 204 203 203 203 203 204 205 208 210 212 212 212 212 212 211 209 206 205 204 203 203 201 199 199 199 198 198 198 195 193 194 195 194 196 199 197 194 198 205 207 203 198 198 199 200 197 194 197 202 206 214 225 230 229
205 203 202 200 200 202 205 207 208 209 209 211 212 210 208 208 209 209 207 206 205 205 206 207 208 208 202 198 200 205 206 205 206 207 206 205 207 208 209 210 211 211 212 212 210 208 207 206 205 204 203 200 201 205 206 202 200 201 200 197 198 202 203 201 201 203 203 201 201 204 204 200 197 197 198 198 199 198 197 198 201 207 216 226 228
208 204 202 203 201 200 203 205 205 207 208 208 210 210 208 205 206 210 214 213 210 209 210 210 210 211 207 199 198 203 205 206 206 208 209 209 209 211 211 211 211 213 215 215 212 210 211 211 207 207 209 207 207 213 215 211 206 207 207 202 204 209 209 205 204 206 209 209 205 200 198 198 196 196 197 197 197 199 199 196 197 203 209 219 225
213 207 204 205 203 201 203 202 201 205 208 208 210 211 208 203 203 209 217 220 216 214 216 215 210 209 210 208 203 202 205 207 208 208 210 211 211 212 212 211 210 214 218 220 218 219 222 221 216 214 218 219 217 219 221 218 214 216 215 209 207 210 208 205 206 210 214 215 208 196 193 196 194 194 198 198 194 195 198 197 197 201 205 214 222
215 210 207 207 205 203 204 201 199 203 207 208 209 210 207 203 203 208 215 219 217 216 218 217 209 204 208 214 213 206 205 207 209 209 211 212 213 213 212 211 212 215 218 220 222 224 227 227 224 223 224 225 223 223 223 219 216 218 219 214 210 212 212 210 211 212 214 215 209 199 195 195 192 193 200 200 194 192 197 198 198 201 204 211 220
214 211 209 207 205 204 204 202 200 202 204 206 209 210 208 206 207 209 213 216 216 215 215 213 209 206 210 215 216 211 207 208 209 210 211 212 213 214 212 212 215 217 217 219 223 227 228 229 229 229 229 227 226 225 224 220 216 218 219 216 213 215 217 216 214 213 214 214 209 201 197 194 191 194 203 204 197 193 195 196 197 199 201 205 215
213 212 210 208 207 206 206 205 203 201 200 201 206 211 211 210 210 212 213 213 214 214 211 209 210 211 213 214 214 213 210 209 210 211 211 211 212 213 212 211 215 219 219 220 224 227 228 230 231 232 232 229 227 225 224 222 219 217 217 215 216 219 221 219 217 216 215 213 209 203 197 193 190 193 201 203 199 195 194 193 194 197 200 205 212
210 211 212 211 210 209 207 205 205 203 201 202 209 214 213 211 211 212 214 215 215 215 213 212 213 215 215 214 214 213 211 210 210 212 212 212 212 211 209 209 213 218 222 223 223 223 226 229 232 233 233 231 228 225 224 223 222 220 219 219 221 222 221 219 218 217 216 212 208 204 198 195 194 195 196 196 196 196 197 196 194 196 200 206 210